Weather History for Coral Harbour, NU

Change the Weather History Date:

Friday, October 28, 2011

  Actual Average Record
Temperature  
Mean Temperature 26 °F -  
Max Temperature 32 °F 10 °F 32 °F (1998)
Min Temperature 21 °F -6 °F -2 °F (2013)
Degree Days  
Heating Degree Days 38    
Moisture  
Dew Point 28 °F    
Average Humidity 91    
Maximum Humidity 100    
Minimum Humidity 72    
Precipitation  
Precipitation 0.01 in 0.03 in - ()
Sea Level Pressure  
Sea Level Pressure 29.94 in    
Wind  
Wind Speed 13 mph ()    
Max Wind Speed 20 mph    
Max Gust Speed 18 mph    
Visibility 13.9 miles    
Events Snow    
Averages and records for this station are not official NWS values.
T = Trace of Precipitation, MM = Missing Value Source: Averaged Metar Reports

Daily Weather History Graph

Daily Weather History Graph

Search for Another Location

Airport:

Trip Planner

Search our weather history database for the weather conditions in past years. The results will help you decide how hot, cold, wet, or windy it might be!

Date:

Astronomy

Oct. 28, 2011 Rise Set
Actual Time 9:03 AM EDT 5:29 PM EDT
Civil Twilight 8:11 AM EDT 6:21 PM EDT
Nautical Twilight 7:14 AM EDT 7:18 PM EDT
Astronomical Twilight 6:19 AM EDT 8:13 PM EDT
Moon 12:42 PM EDT (10/28) 5:24 PM EDT (10/28)
Length of Visible Light 10h 10m
Length of Day
8h 26m
Waxing Crescent, 5% of the Moon is Illuminated
Oct 28
Waxing Crescent
Nov 2
First Quarter
Nov 10
Full
Nov 18
Last Quarter
Nov 25
New

Hourly Weather History & Observations

Time (EDT) Temp. Windchill Dew Point Humidity Pressure Visibility Wind Dir Wind Speed Gust Speed Precip Events Conditions
12:00 AM 28.4 °F 18.0 °F 23.0 °F 80% 29.95 in 15.0 mi SSW 12.7 mph - N/A   Overcast
1:00 AM 28.4 °F 15.8 °F 23.0 °F 80% 29.94 in 15.0 mi South 18.4 mph - N/A   Overcast
2:00 AM 28 °F - 22 °F 72% 29.94 in 15 mi South 15.0 mph - -   Partly Cloudy
2:00 AM 28.4 °F 17.0 °F 23.0 °F 80% 29.94 in 15.0 mi South 15.0 mph - N/A   Overcast
2:32 AM - - - N/A% - 15.0 mi South 11.5 mph - N/A   Unknown
3:00 AM 28.4 °F 18.0 °F 24.8 °F 86% 29.93 in 15.0 mi South 12.7 mph 18.4 mph N/A Snow Light Snow
4:00 AM 28.4 °F 16.6 °F 24.8 °F 86% 29.92 in 15.0 mi South 16.1 mph - N/A Snow Light Snow
5:00 AM 28.4 °F 17.0 °F 24.8 °F 86% 29.92 in 15.0 mi South 15.0 mph - N/A Snow Light Snow
6:00 AM 28.4 °F 15.8 °F 26.6 °F 93% 29.92 in 15.0 mi South 18.4 mph - N/A Snow Light Snow
7:00 AM 30.2 °F 19.3 °F 26.6 °F 86% 29.92 in 15.0 mi South 15.0 mph - N/A Snow Light Snow
8:00 AM 29 °F - 27 °F 91% 29.92 in 15 mi South 17.3 mph - - Snow Light Snow
8:00 AM 30.2 °F 18.5 °F 26.6 °F 86% 29.92 in 15.0 mi South 17.3 mph - N/A Snow Light Snow
9:00 AM 30.2 °F 18.9 °F 28.4 °F 93% 29.93 in 15.0 mi South 16.1 mph - N/A Snow Light Snow
10:00 AM 30.2 °F 17.8 °F 28.4 °F 93% 29.92 in 15.0 mi South 19.6 mph - N/A Snow Light Snow
11:00 AM 30.2 °F 19.8 °F 30.2 °F 100% 29.93 in 3.0 mi South 13.8 mph - N/A Snow Light Snow
12:00 PM 30.2 °F 18.9 °F 28.4 °F 93% 29.93 in 6.0 mi South 16.1 mph - N/A Snow Light Snow
12:18 PM - - - N/A% - 12.0 mi South 17.3 mph - N/A   Overcast
1:00 PM 30.2 °F 18.9 °F 30.2 °F 100% 29.93 in 12.0 mi South 16.1 mph - N/A   Overcast
2:00 PM 31 °F - 30 °F 94% 29.94 in 15 mi South 13.8 mph - -   Partly Cloudy
2:00 PM 30.2 °F 19.8 °F 30.2 °F 100% 29.94 in 15.0 mi South 13.8 mph - N/A   Overcast
3:00 PM 30.2 °F 22.6 °F 30.2 °F 100% 29.94 in 15.0 mi South 8.1 mph - N/A   Overcast
4:06 PM - - - N/A% - 15.0 mi South 11.5 mph - N/A   Unknown
5:00 PM 30.2 °F 20.8 °F 30.2 °F 100% 29.95 in 15.0 mi South 11.5 mph - N/A Snow Light Snow
6:00 PM 30.2 °F 21.3 °F 30.2 °F 100% 29.95 in 12.0 mi South 10.4 mph - N/A Snow Light Snow
8:00 PM 31 °F - 30 °F 95% 29.97 in 15 mi SSW 9.2 mph - - Snow Light Snow
8:00 PM 32.0 °F 24.2 °F 30.2 °F 93% 29.97 in 15.0 mi SSW 9.2 mph - N/A Snow Light Snow
10:00 PM 30.2 °F 22.6 °F 30.2 °F 100% 29.98 in 12.0 mi South 8.1 mph - N/A Snow Light Snow
11:00 PM 30.2 °F 20.8 °F 30.2 °F 100% 29.97 in 15.0 mi South 11.5 mph - N/A Snow Light Snow
11:12 PM - - - N/A% - 15.0 mi South 12.7 mph - N/A   Unknown